FW0097 Weather Reports


time (UTC)temp
F
wind
direction
speed
knots
gust
knots
rain 1hr
in
rain 24hr
in
rain mn
in
humidity
%
barometer
mb
20220813154503 74 340 1.7 14.8 0.00 0.00 0.00 66 1010.9
20220813153013 75 351 1.7 16.5 0.00 0.00 0.00 66 1011.0
20220813151502 75 18 1.7 14.8 0.00 0.00 0.00 65 1011.0
20220813150132 76 325 0.0 15.6 0.00 0.00 0.00 64 1010.9
20220813144531 77 305 0.9 11.3 0.00 0.00 0.00 61 1010.9
20220813143029 77 9 2.6 12.2 0.00 0.00 0.00 61 1010.8
20220813141537 77 46 0.0 8.7 0.00 0.00 0.00 60 1010.8
20220813140035 77 344 0.9 10.4 0.00 0.00 0.00 61 1011.0
20220813134530 78 294 0.0 13.0 0.00 0.00 0.00 60 1011.0
20220813133042 78 351 0.0 4.3 0.00 0.00 0.00 61 1011.1
20220813131541 78 24 0.0 7.8 0.00 0.00 0.00 60 1011.2
20220813130029 78 306 0.0 4.3 0.00 0.00 0.00 58 1011.2
20220813124518 79 330 0.0 3.5 0.00 0.00 0.00 56 1011.3
20220813123014 78 330 0.0 1.7 0.00 0.00 0.00 58 1011.4
20220813121512 78 13 0.0 4.3 0.00 0.00 0.00 57 1011.5
20220813120013 77 319 0.0 2.6 0.00 0.00 0.00 58 1011.6
20220813114524 77 234 0.0 7.8 0.00 0.00 0.00 58 1011.7
20220813113004 78 304 0.0 7.8 0.00 0.00 0.00 57 1011.9
20220813111503 77 326 0.9 10.4 0.00 0.00 0.00 57 1012.1
20220813110117 77 313 0.0 8.7 0.00 0.00 0.00 58 1012.2
20220813104616 76 333 0.0 10.4 0.00 0.00 0.00 57 1012.3
20220813103059 77 318 0.9 8.7 0.00 0.00 0.00 58 1012.4
20220813101557 76 330 0.0 12.2 0.00 0.00 0.00 60 1012.5
20220813100059 76 332 0.0 7.8 0.00 0.00 0.00 60 1012.6
20220813094550 75 10 0.9 9.6 0.00 0.00 0.00 62 1012.6
20220813093052 75 325 0.9 12.2 0.00 0.00 0.00 62 1012.6
20220813091608 75 11 0.0 8.7 0.00 0.00 0.00 64 1012.7
20220813090040 74 346 0.0 7.8 0.00 0.00 0.00 65 1012.8
20220813083005 72 344 0.9 8.7 0.00 0.00 0.00 67 1013.1
20220813081502 72 333 0.9 11.3 0.00 0.00 0.00 68 1013.2
20220813080048 72 326 0.0 8.7 0.00 0.00 0.00 67 1013.4
20220813074527 72 9 0.0 7.8 0.00 0.00 0.00 70 1013.6
20220813073023 71 303 0.9 12.2 0.00 0.00 0.00 70 1013.6
20220813071537 70 336 0.9 7.8 0.00 0.00 0.00 72 1013.5
20220813070019 68 339 0.0 7.0 0.00 0.00 0.00 75 1013.6
20220813064518 66 334 0.0 1.7 0.00 0.00 0.00 79 1013.6
20220813063004 63 346 0.0 0.0 0.00 0.00 0.00 82 1013.8
20220813061510 62 340 0.0 0.0 0.00 0.00 0.00 83 1013.8
20220813060002 61 311 0.0 0.9 0.00 0.00 0.00 83 1013.8
20220813054610 60 325 0.0 2.6 0.00 0.00 0.00 84 1013.7
20220813053028 60 323 0.0 1.7 0.00 0.00 0.00 84 1013.9
20220813051537 59 316 0.0 1.7 0.00 0.00 0.00 85 1013.9
20220813050016 58 337 0.0 2.6 0.00 0.00 0.00 86 1013.9
20220813044517 58 333 0.0 0.9 0.00 0.00 0.00 86 1014.0
20220813043009 57 322 0.0 0.0 0.00 0.00 0.00 87 1014.1
20220813041518 57 355 0.0 0.9 0.00 0.00 0.00 88 1014.2
20220813040005 57 5 0.0 1.7 0.00 0.00 0.00 87 1014.4
20220813034636 57 5 0.0 0.9 0.00 0.00 0.00 87 1014.3
20220813033105 56 351 0.0 0.0 0.00 0.00 0.00 89 1014.3
20220813031653 56 355 0.0 0.0 0.00 0.00 0.00 88 1014.3
20220813030109 56 48 0.0 0.0 0.00 0.00 0.00 87 1014.4
20220813024606 57 313 0.0 0.0 0.00 0.00 0.00 87 1014.4
20220813021558 57 43 0.0 0.0 0.00 0.00 0.00 87 1014.5
20220813014546 57 39 0.0 0.0 0.00 0.00 0.00 85 1014.8
20220813013057 58 19 0.0 0.0 0.00 0.00 0.00 86 1015.0
20220813011546 58 33 0.0 0.0 0.00 0.00 0.00 85 1015.0
20220813004617 58 45 0.0 0.0 0.00 0.00 0.00 84 1015.2
20220813003032 58 38 0.0 0.0 0.00 0.00 0.00 84 1015.3
20220813001534 59 29 0.0 0.0 0.00 0.00 0.00 84 1015.4
20220813000009 59 34 0.0 1.7 0.00 0.00 0.00 83 1015.5
20220812234514 59 346 0.0 0.0 0.00 0.00 0.00 82 1015.5
20220812233006 60 5 0.0 0.0 0.00 0.00 0.00 80 1015.8
20220812231605 61 317 0.0 7.0 0.00 0.00 0.00 79 1016.0
20220812230102 61 355 0.0 0.0 0.00 0.00 0.00 80 1016.1
20220812224608 61 5 0.0 0.9 0.00 0.00 0.00 80 1016.2
20220812223055 62 360 0.0 0.0 0.00 0.00 0.00 79 1016.4
20220812221529 62 16 0.0 0.0 0.00 0.00 0.00 78 1016.4
20220812220035 62 24 0.0 0.0 0.00 0.00 0.00 78 1016.3
20220812214551 63 24 0.0 0.0 0.00 0.00 0.00 77 1016.4
20220812213017 64 5 0.0 0.0 0.00 0.00 0.00 75 1016.3
20220812211522 64 5 0.0 0.0 0.00 0.00 0.00 73 1016.3
20220812210017 65 5 0.0 0.0 0.00 0.00 0.00 72 1016.2
20220812204514 67 344 0.0 2.6 0.00 0.00 0.00 69 1016.3
20220812203022 66 5 0.0 0.0 0.00 0.00 0.00 70 1016.3
20220812201521 66 33 0.0 0.0 0.00 0.00 0.00 70 1016.3
20220812200013 68 5 0.0 0.0 0.00 0.00 0.00 66 1016.2
20220812194543 69 355 0.0 0.0 0.00 0.00 0.00 65 1016.2
20220812193043 68 36 0.0 0.9 0.00 0.00 0.00 67 1016.2
20220812190043 69 355 0.0 0.0 0.00 0.00 0.00 66 1016.1
20220812184551 70 360 0.0 0.0 0.00 0.00 0.00 65 1016.0
20220812183107 70 355 0.0 0.0 0.00 0.00 0.00 65 1015.9
20220812181541 71 342 0.0 0.0 0.00 0.00 0.00 65 1015.9
20220812180044 71 344 0.0 0.0 0.00 0.00 0.00 64 1015.8
20220812174537 72 47 0.0 0.0 0.00 0.00 0.00 63 1015.7
20220812173059 73 14 0.0 0.0 0.00 0.00 0.00 61 1015.7
20220812171531 75 69 0.0 0.0 0.00 0.00 0.00 59 1015.6
20220812170037 75 43 0.0 0.0 0.00 0.00 0.00 58 1015.7
20220812164556 76 22 0.0 0.0 0.00 0.00 0.00 55 1015.7
20220812163033 77 38 0.0 0.0 0.00 0.00 0.00 53 1015.8
20220812161558 77 5 0.0 0.0 0.00 0.00 0.00 52 1015.9
20220812160118 78 57 0.0 0.9 0.00 0.00 0.00 53 1016.0